Vertical_Velocity
-1 -2 -1 -1 -1 -1 -1 -1 -2 0 -2 -8 -1 -4 -2 -2 -2 -3 -2 -2 -2 -1 0 -1 -2 -1 -2 -4 -4 -6 -2 -5 -1 -2 -1 1 -2 -1 1 0 4 6 4 3
-2 -2 -1 -0 -1 -1 -1 -1 -1 -3 -1 -6 1 -1 -2 -1 -2 -2 -2 -0 -1 -2 -2 -3 -2 -3 -2 -1 -1 -2 -1 1 -1 -2 -2 -4 -3 -1 -3 1 4 3 2 2
-2 -1 -1 -1 -1 -2 -1 -1 -1 -1 -3 -1 -3 -2 -1 -1 -1 -2 -1 -1 -2 0 -2 -5 -3 0 -0 -0 -1 -0 -2 -2 -2 -4 -2 -1 -1 -2 -4 2 1 7 3 5
-0 -1 -1 -2 -1 -1 1 -0 -1 -2 -3 -2 1 -8 -1 -1 -4 -3 -1 -0 -0 -3 -2 -1 -0 -1 1 -2 -1 -2 -3 -3 -4 -5 -4 -5 -6 -9 -4 -3 3 8 -1 0
-1 -0 -1 -0 -2 -2 -3 -2 -1 -1 -1 -0 -0 1 -2 -2 -3 -2 0 -1 -2 -3 -2 -3 -2 -1 -3 -1 -2 -2 -5 -5 -5 -4 -4 -5 -3 -4 -4 5 7 2 3 1
-1 -1 -2 -1 -2 -1 0 -0 1 -1 0 -1 -0 0 -8 -3 -2 -2 -3 -2 -2 -3 -3 -1 -0 0 -1 -1 -3 -3 -3 -3 -4 -3 -2 -3 -3 -3 -2 -2 -3 4 2 2
-2 -1 1 0 1 1 -1 -0 -1 -5 -2 -6 0 -0 -9 -3 -3 -1 -1 -3 -3 -3 -2 -1 0 -1 -2 -1 -2 -2 -2 -2 -2 -3 -3 -3 -4 -4 -5 -2 5 4 -1 1
1 0 1 -0 -0 -0 -0 -0 -1 -3 -2 -4 -0 -8 -4 -2 -2 -2 -1 -1 -0 -0 0 0 0 -0 -1 -2 -2 -2 -1 -2 -3 -2 -2 -1 -4 -1 -3 -4 -3 -2 -2 2
-2 -0 -0 -1 0 -0 -1 -2 -1 -1 -0 0 -0 -3 1 -2 -1 -0 1 0 -1 -0 -0 -0 -1 -1 -0 -0 -1 0 -1 -1 -3 -3 -2 -2 -2 -4 -3 -4 -2 -3 -1 0
-3 -2 -1 -1 -1 -1 1 -0 -1 -1 -4 -3 -4 -4 -5 0 1 1 -1 -1 -1 -0 0 -1 -0 -1 -0 -0 -0 -0 -0 -1 0 -1 -1 -1 1 -1 -3 -3 -2 -3 -3 -1
-0 1 -0 0 -1 -1 -3 -3 -2 -1 -1 -3 -1 -12 -1 -3 -2 -1 -0 -2 1 1 -1 -1 -1 -0 -0 -1 -0 -1 -1 -0 -0 -2 -2 -2 0 1 0 -2 -3 -4 -3 -1
-0 0 -1 1 1 0 1 1 1 -0 -1 1 -0 -33 -1 -1 -1 2 4 2 0 -2 -1 -1 -1 -0 -2 -2 -3 -2 -1 -2 -2 -2 -1 -1 -2 -1 -1 -1 -0 1 -2 -2
-1 -2 -4 -1 -1 0 -3 1 1 0 1 -5 -2 -20 1 3 3 5 1 1 -2 -1 -0 -1 -3 -1 -0 -0 -0 0 -0 1 0 2 2 1 0 -0 -2 -0 0 -2 -2 0
-1 -2 -2 -5 2 4 1 3 3 6 3 -5 -24 -19 10 7 6 4 1 1 -1 -1 -2 0 1 -1 -1 -1 -1 -2 -2 -1 -2 -3 -1 0 2 3 3 -0 -2 -0 1 0
1 -3 1 -1 -4 1 1 -1 5 -3 5 -8 4 -14 4 3 3 1 0 2 1 0 -0 -1 -0 1 -1 -0 -0 1 1 -1 -2 -2 -1 -2 -1 0 1 1 2 1 -1 -2
-1 -4 -1 -7 -3 0 -8 4 3 4 3 -17 9 -31 21 4 6 5 4 1 2 2 2 2 -0 -1 1 -0 -1 -3 -2 -2 -2 -3 -2 -1 -2 -2 0 0 -1 -2 1 3
2 -1 1 -8 -0 -3 -10 -1 0 2 3 7 -5 5 7 2 1 1 -2 3 -2 -1 -0 2 -0 -0 1 1 -1 1 -0 -2 -1 -2 -1 -2 -0 2 1 1 0 -2 -2 -1
-1 4 1 -11 -2 -4 -2 -4 1 0 2 1 -7 0 2 1 1 4 3 -8 -8 0 0 -1 -4 -3 -2 -1 1 1 1 1 0 0 -0 1 2 0 -1 -0 1 1 2 2
7 9 -3 -4 -2 -17 -3 -0 -1 -3 -12 -1 4 2 2 3 -9 8 7 3 1 -3 -2 -0 -2 -1 -0 -1 -2 -1 0 -0 -4 2 -3 -1 -3 -5 -6 -6 -4 -1 -1 1
-1 4 6 4 -1 -2 2 -2 2 -2 -12 6 5 5 2 1 -7 -7 -4 0 3 3 -2 -2 2 1 2 1 0 1 1 -4 3 -2 -5 -4 -1 0 1 2 2 -1 -4 -1
1 0 -4 4 -1 -17 7 5 1 -2 -1 2 4 7 3 -2 -1 -6 -0 -0 2 -2 -1 -1 -5 -3 1 -2 -3 -1 0 8 7 0 -3 1 1 -2 -3 -3 -2 -1 1 -0
4 4 -4 5 3 -18 6 -1 1 9 9 2 5 2 -6 4 -0 -4 -1 -0 -2 -2 1 4 -5 -4 0 0 1 2 0 1 -2 -0 4 4 0 2 4 3 -0 1 -1 -1
-8 -1 4 5 -8 1 11 6 4 4 7 -9 -3 -2 -2 -4 -5 -7 -6 -3 1 3 -3 5 1 -2 5 -1 -1 -5 7 -3 -0 -2 1 4 2 3 1 1 -0 -0 -2 -1
-8 7 -0 20 -18 1 -1 8 7 1 6 5 -1 -10 -7 -9 -3 1 -2 -2 -2 2 2 5 2 -1 -3 8 1 3 0 -2 -4 1 2 2 -0 3 5 4 3 3 2 1
-3 -10 11 14 -12 11 3 8 3 -9 -5 3 3 -3 -5 -5 -5 -2 -3 -3 -3 -3 -5 3 4 2 -1 6 2 1 4 8 6 3 1 1 3 1 2 2 -1 5 5 2
-5 -32 11 -2 4 10 6 -4 -11 -9 1 -0 -5 -2 -1 -1 0 -2 -3 -0 -0 -2 0 -1 -1 4 4 0 0 2 3 4 3 3 6 6 2 0 2 2 1 1 1 3
Height
3134 3136 3136 3136 3135 3135 3135 3134 3131 3130 3127 3124 3120 3116 3113 3111 3111 3111 3111 3109 3107 3104 3101 3098 3095 3092 3088 3083 3080 3075 3070 3064 3058 3053 3047 3043 3038 3035 3032 3030 3031 3034 3038 3042
3135 3134 3135 3135 3134 3134 3133 3132 3129 3126 3125 3122 3116 3113 3111 3110 3110 3110 3108 3106 3104 3102 3099 3096 3092 3089 3084 3081 3076 3071 3064 3059 3052 3046 3040 3033 3029 3026 3021 3018 3017 3020 3025 3029
3133 3135 3134 3134 3134 3133 3131 3130 3127 3125 3121 3118 3115 3110 3109 3109 3108 3107 3106 3104 3102 3099 3097 3094 3090 3086 3082 3078 3074 3067 3061 3055 3048 3041 3036 3028 3021 3015 3010 3006 3006 3010 3014 3019
3134 3134 3134 3133 3133 3132 3130 3128 3125 3122 3120 3118 3116 3111 3107 3106 3106 3106 3104 3102 3099 3098 3094 3090 3087 3083 3079 3075 3070 3064 3058 3053 3045 3037 3031 3024 3016 3008 3002 2999 3001 3005 3008 3014
3134 3133 3133 3133 3132 3131 3129 3126 3122 3119 3117 3116 3114 3113 3103 3103 3104 3103 3101 3099 3096 3094 3091 3088 3085 3081 3077 3072 3067 3062 3056 3050 3042 3035 3028 3022 3014 3006 3001 2999 2998 3001 3007 3012
3132 3132 3132 3132 3130 3129 3127 3124 3120 3117 3115 3115 3112 3112 3099 3100 3101 3099 3097 3096 3094 3091 3089 3085 3082 3078 3073 3069 3064 3060 3054 3049 3041 3033 3026 3020 3013 3006 3002 2997 2999 3001 3005 3010
3130 3130 3130 3129 3129 3127 3126 3124 3120 3121 3117 3115 3111 3110 3096 3097 3097 3096 3095 3094 3092 3090 3086 3083 3079 3075 3071 3067 3063 3058 3052 3047 3040 3032 3025 3019 3014 3008 3004 3000 3000 3002 3007 3011
3129 3129 3129 3128 3128 3127 3125 3125 3124 3129 3125 3114 3108 3101 3093 3093 3093 3093 3093 3091 3089 3086 3083 3080 3076 3072 3068 3065 3061 3056 3051 3046 3039 3033 3025 3020 3015 3011 3008 3005 3003 3004 3008 3010
3129 3128 3128 3127 3127 3128 3125 3125 3125 3123 3121 3119 3102 3094 3091 3090 3091 3091 3090 3088 3086 3084 3080 3076 3073 3069 3066 3063 3059 3054 3049 3044 3039 3033 3027 3021 3017 3013 3010 3008 3008 3008 3009 3010
3130 3127 3126 3126 3126 3125 3124 3125 3124 3122 3125 3121 3100 3094 3088 3089 3090 3090 3089 3086 3084 3080 3077 3074 3070 3067 3063 3060 3056 3051 3047 3042 3037 3033 3028 3023 3019 3016 3012 3011 3010 3010 3011 3013
3128 3127 3126 3124 3123 3122 3122 3122 3122 3123 3122 3122 3118 3090 3088 3087 3088 3088 3086 3083 3080 3076 3072 3069 3066 3063 3060 3057 3053 3050 3045 3040 3036 3031 3028 3024 3020 3017 3015 3012 3012 3011 3012 3012
3127 3125 3122 3121 3120 3119 3118 3118 3119 3120 3120 3117 3116 3091 3085 3086 3087 3085 3083 3080 3075 3070 3067 3065 3062 3059 3056 3054 3051 3047 3043 3039 3035 3031 3028 3025 3021 3018 3015 3013 3012 3012 3012 3012
3127 3124 3122 3119 3120 3117 3115 3116 3116 3117 3117 3111 3113 3087 3084 3084 3084 3082 3077 3073 3069 3066 3064 3062 3059 3056 3053 3050 3047 3044 3041 3038 3034 3030 3027 3025 3022 3019 3017 3014 3012 3010 3010 3010
3124 3121 3120 3119 3117 3116 3112 3112 3112 3113 3108 3101 3085 3077 3082 3082 3080 3076 3073 3069 3065 3063 3060 3058 3056 3052 3049 3046 3043 3041 3037 3035 3032 3029 3026 3023 3021 3019 3018 3016 3013 3011 3008 3007
3120 3115 3114 3113 3111 3108 3102 3101 3101 3098 3098 3095 3075 3075 3073 3077 3073 3070 3066 3064 3061 3059 3057 3055 3052 3049 3045 3042 3039 3036 3034 3031 3029 3026 3023 3021 3018 3016 3013 3011 3010 3009 3008 3007
3116 3112 3108 3100 3102 3098 3091 3089 3087 3086 3085 3081 3076 3068 3075 3073 3070 3067 3063 3059 3056 3054 3052 3050 3047 3044 3040 3036 3033 3031 3028 3026 3025 3022 3020 3018 3016 3014 3013 3011 3010 3008 3004 3002
3111 3109 3107 3097 3096 3092 3083 3078 3077 3078 3076 3075 3070 3068 3068 3067 3066 3062 3059 3057 3054 3050 3047 3044 3040 3036 3033 3029 3025 3023 3021 3019 3019 3017 3016 3014 3013 3011 3009 3007 3005 3004 3002 3000
3104 3104 3106 3097 3093 3091 3078 3074 3074 3070 3069 3068 3065 3063 3063 3061 3059 3058 3054 3050 3049 3047 3042 3038 3033 3031 3027 3023 3019 3015 3014 3013 3012 3011 3010 3009 3008 3006 3005 3003 3002 3000 2998 2997
3097 3099 3100 3098 3092 3080 3070 3069 3069 3066 3066 3063 3061 3060 3059 3055 3050 3051 3048 3043 3039 3036 3034 3030 3025 3022 3020 3017 3013 3011 3009 3007 3006 3005 3004 3002 3001 3000 2999 2998 2996 2995 2993 2991
3092 3094 3097 3093 3092 3082 3068 3068 3066 3064 3059 3058 3057 3056 3052 3047 3038 3037 3039 3035 3030 3026 3023 3019 3016 3014 3011 3009 3007 3005 3003 3000 2999 2998 2997 2994 2993 2992 2991 2989 2988 2988 2986 2984
3088 3087 3086 3089 3087 3071 3065 3065 3065 3065 3066 3059 3055 3050 3044 3039 3037 3029 3026 3023 3021 3017 3014 3011 3007 3004 3004 3001 2998 2997 2994 2993 2991 2988 2986 2985 2985 2983 2982 2982 2981 2980 2979 2978
3087 3084 3079 3081 3081 3071 3063 3062 3066 3064 3058 3055 3049 3042 3035 3030 3024 3020 3016 3012 3011 3007 3005 3003 2998 2996 2994 2991 2989 2988 2986 2985 2982 2981 2979 2977 2976 2975 2974 2973 2972 2972 2971 2970
3080 3079 3077 3074 3067 3066 3061 3059 3059 3053 3046 3040 3033 3029 3022 3015 3009 3006 3002 3001 2998 2996 2994 2993 2988 2986 2986 2981 2979 2977 2978 2974 2972 2970 2970 2969 2968 2966 2966 2965 2964 2964 2963 2962
3070 3073 3064 3059 3056 3057 3055 3053 3049 3042 3034 3028 3023 3016 3013 3007 3003 2996 2990 2987 2985 2983 2981 2979 2976 2973 2973 2972 2968 2967 2965 2962 2961 2960 2959 2959 2958 2958 2957 2957 2956 2955 2955 2954
3064 3062 3055 3043 3045 3044 3043 3040 3033 3027 3024 3017 3011 3007 3003 2997 2992 2988 2981 2978 2974 2971 2969 2966 2963 2960 2961 2961 2958 2955 2954 2952 2950 2949 2948 2948 2947 2947 2947 2948 2948 2948 2947 2946
3051 3053 3046 3033 3038 3033 3028 3025 3022 3016 3012 3007 3000 2996 2994 2988 2980 2976 2972 2969 2964 2961 2958 2954 2950 2947 2947 2946 2946 2946 2944 2941 2940 2938 2938 2936 2935 2936 2936 2937 2937 2938 2939 2938